Deptford, New Jersey, United States
Lat: 39.83N, Lon: 75.13W
Wx Zone: NJZ017
Local Info
Past Weather Observations for Monday, February 23, 2015

NOTE: This archive is for the closest National Weather Service station to Deptford. Information may differ from the station used for current weather conditions.

Click here for Long-term Archive

Time Weather Temperature Dewpoint Humidity Pressure Winds Precip Visibility
23:54
Clear
14°F / -10°C -8°F / -22°C 37% 30.42 in
(1030 mb)
N 9.2 mph
(N 15 kph)
- 10SM
22:54
Clear
16°F / -9°C -8°F / -22°C 34% 30.42 in
(1030 mb)
N 10.4 mph
(N 17 kph)
- 10SM
21:54
Clear
18°F / -8°C -8°F / -22°C 32% 30.42 in
(1030 mb)
N 11.5 mph
(N 19 kph)
- 10SM
20:54
Clear
18°F / -8°C -8°F / -22°C 32% 30.42 in
(1030 mb)
N 11.5 mph
(N 19 kph)
- 10SM
19:54
Clear
19°F / -7°C -8°F / -22°C 29% 30.42 in
(1030 mb)
NNW 10.4 mph
(NNW 17 kph)
- 10SM
18:54
Partly Cloudy
21°F / -6°C -8°F / -22°C 27% 30.39 in
(1029 mb)
N 13.8 mph
(N 22 kph)
- 10SM
17:54
Mostly Cloudy
23°F / -5°C -6°F / -21°C 28% 30.36 in
(1028 mb)
NNW 17.3 mph
(NNW 28 kph)
- 10SM
16:54
Mostly Cloudy
25°F / -4°C -2°F / -19°C 30% 30.33 in
(1027 mb)
NNW 17.3 mph
(NNW 28 kph)
- 10SM
15:54
Mostly Cloudy
27°F / -3°C -4°F / -20°C 26% 30.3 in
(1026 mb)
NW 21.9 mph
(NW 35 kph)
- 10SM
14:54
Partly Cloudy
27°F / -3°C -2°F / -19°C 28% 30.3 in
(1026 mb)
NW 18.4 mph
(NW 30 kph)
- 10SM
13:54
Partly Cloudy
27°F / -3°C 1°F / -17°C 33% 30.3 in
(1026 mb)
NNW 18.4 mph
(NNW 30 kph)
- 10SM
12:54
Mostly Cloudy
27°F / -3°C 1°F / -17°C 33% 30.33 in
(1027 mb)
NNW 12.7 mph
(NNW 20 kph)
- 10SM
11:54
Mostly Cloudy
25°F / -4°C 1°F / -17°C 36% 30.33 in
(1027 mb)
NNW 15 mph
(NNW 24 kph)
- 10SM
10:54
Overcast
27°F / -3°C 7°F / -14°C 43% 30.36 in
(1028 mb)
NW 19.6 mph
(NW 32 kph)
- 10SM
09:54
Overcast
27°F / -3°C 12°F / -11°C 54% 30.33 in
(1027 mb)
N 12.7 mph
(N 20 kph)
- 10SM
08:54
Overcast
28°F / -2°C 16°F / -9°C 59% 30.33 in
(1027 mb)
NNW 13.8 mph
(NNW 22 kph)
0.00 in
(0.00 mm)
10SM
08:32
Overcast
28°F / -2°C 16°F / -9°C 59% 30.33 in
(1027 mb)
NNW 12.7 mph
(NNW 20 kph)
0.00 in
(0.00 mm)
10SM
08:05
Overcast
28°F / -2°C 16°F / -9°C 59% 30.33 in
(1027 mb)
N 12.7 mph
(N 20 kph)
0.00 in
(0.00 mm)
8SM
07:54
Overcast
Light Snow
28°F / -2°C 18°F / -8°C 64% 30.33 in
(1027 mb)
N 18.4 mph
(N 30 kph)
0.00 in
(0.00 mm)
7SM
07:41
Overcast
Light Snow
43°F / 6°C 19°F / -7°C 39% 30.33 in
(1027 mb)
N 19.6 mph
(N 32 kph)
0.00 in
(0.00 mm)
6SM
07:25
Overcast
Light Snow
43°F / 6°C 19°F / -7°C 39% 30.3 in
(1026 mb)
N 20.7 mph
(N 33 kph)
0.00 in
(0.00 mm)
8SM
07:10
Overcast
43°F / 6°C 19°F / -7°C 39% 30.3 in
(1026 mb)
NNW 18.4 mph
(NNW 30 kph)
- 10SM
06:54
Overcast
34°F / 1°C 19°F / -7°C 56% 30.27 in
(1025 mb)
NNW 15 mph
(NNW 24 kph)
- 10SM
05:54
Overcast
34°F / 1°C 18°F / -8°C 51% 30.27 in
(1025 mb)
NW 15 mph
(NW 24 kph)
- 10SM
04:54
Overcast
34°F / 1°C 19°F / -7°C 56% 30.24 in
(1024 mb)
NW 8.1 mph
(NW 13 kph)
- 10SM
03:54
Overcast
34°F / 1°C 19°F / -7°C 56% 30.24 in
(1024 mb)
NW 10.4 mph
(NW 17 kph)
- 10SM
02:54
Overcast
36°F / 2°C 19°F / -7°C 52% 30.24 in
(1024 mb)
NW 15 mph
(NW 24 kph)
- 10SM
01:54
Overcast
36°F / 2°C 21°F / -6°C 56% 30.24 in
(1024 mb)
NW 13.8 mph
(NW 22 kph)
- 10SM
01:08
Overcast
36°F / 2°C 21°F / -6°C 56% 30.24 in
(1024 mb)
WNW 5.8 mph
(WNW 9 kph)
- 10SM
00:54
Overcast
36°F / 2°C 23°F / -5°C 60% 30.24 in
(1024 mb)
NW 9.2 mph
(NW 15 kph)
- 9SM
Time Weather Temperature Dewpoint Humidity Pressure Winds Precip Visibility


Weather for websites

WeatherForYou.com, LLC is not responsible for any damages or problems caused by this service. Current weather conditions are obtained from the closest station including government and personal stations which may have varying degrees of accuracy. Weather forecasts are derived from the NOAA NDFD. Like all things, this site belongs to Jesus Christ... He just trusts me to maintain it. If you have any questions or comments email webmaster@weatherforyou.com

Copyright © 2015, WeatherForYou.com LLC. All rights reserved.